Other Public Products
Issued by NWS Grand Forks, ND

Home | Current Version | Previous Version | Text Only | Print | Product List | Glossary Off
Versions: 1 2 3 4 5 6 7 8 9 10 11 12 13 14 15 16 17 18 19 20 21 22 23 24 25 26 27 28 29 30 31 32 33 34 35 36 37 38 39 40 41 42 43 44 45 46 47 48 49 50

761
FPUS83 KFGF 270031
OPUFGF
PRAIRIE TO PINES WEATHER ROUNDUP
NATIONAL WEATHER SERVICE EASTERN NORTH DAKOTA/GRAND FORKS ND
700 PM CDT THU APR 26 2018

 **SATELLITE DATA USED TO AUGMENT SKY COVER AT AUTOMATED STATIONS**
 *****  WEATHER ACROSS EASTERN NORTH DAKOTA  *****

CITY           SKY/WX    TMP DP  RH WIND       PRES   REMARKS
GRAND FORKS    FAIR      61  32  33 W6        29.90F
6HR MIN TEMP:  53; 6HR MAX TEMP:  62;

GRND FORKS AFB PTSUNNY   60  25  26 CALM      29.90F
GRND FORKS NWS   N/A     60  32  34 SW3       29.86F
BUXTON           N/A     58  40  52 SW5         N/A
DEVILS LAKE    CLOUDY    62  29  28 W12       29.89F
6HR MIN TEMP:  54; 6HR MAX TEMP:  63;

FARGO          FAIR      60  30  32 NW10      29.97F
6HR MIN TEMP:  54; 6HR MAX TEMP:  62;

WAHPETON ARPT  FAIR      57  27  30 N10       29.99S
$$

 *****  WEATHER ACROSS CENTRAL AND WESTERN NORTH DAKOTA  *****

CITY           SKY/WX    TMP DP  RH WIND       PRES   REMARKS
JAMESTOWN      FAIR      64  25  22 NW17      29.95F
6HR MIN TEMP:  58; 6HR MAX TEMP:  65;

BISMARCK       FAIR      68  27  21 W20G28    29.98F
6HR MIN TEMP:  61; 6HR MAX TEMP:  69;

MINOT          FAIR      70  24  17 W22G32    29.90F
6HR MIN TEMP:  62; 6HR MAX TEMP:  71;

MINOT AFB      FAIR      69  26  20 NW25G33   29.87F
6HR MIN TEMP:  62; 6HR MAX TEMP:  70;

GARRISON         N/A     65  27  23 W26G36    29.95F
6HR MIN TEMP:  59; 6HR MAX TEMP:  66;

WILLISTON      FAIR      71  27  19 W18G28    29.98F
6HR MIN TEMP:  63; 6HR MAX TEMP:  71;

DICKINSON      FAIR      65  25  22 W22       30.01F
6HR MIN TEMP:  60; 6HR MAX TEMP:  67;

HETTINGER      FAIR      63  27  25 W20G26    30.07F
6HR MIN TEMP:  59; 6HR MAX TEMP:  65;

$$

 *****  OTHER OBSERVATIONS NORTHEAST NORTH DAKOTA  *****

CITY           SKY/WX    TMP DP  RH WIND       PRES   REMARKS
WALHALLA       FAIR      64  28  25 W15G22    29.82F
LANGDON        FAIR      61  32  33 SW12      29.84F
CAVALIER         N/A     63  28  27 SW10      29.83F
GRAFTON        FAIR      61  28  29 S12       29.88F HAZE
CANDO          CLOUDY    64  27  24 W15       29.87F
FORT TOTTEN      N/A     62  26  25 NW6       29.95S
ROLLA          FAIR      63  27  25 W17       29.84F
RUGBY          FAIR      66  28  24 NW22G32   29.85F
 ***** THE ABOVE OBSERVATIONS ARE NON NWS ARE NOT QUALITY
        CONTROLLED AND MAY MIS-REPORT RAIN FOR SNOW...
$$

 *****  OTHER OBSERVATIONS SOUTHEAST NORTH DAKOTA *****

CITY           SKY/WX    TMP DP  RH WIND       PRES   REMARKS
COOPERSTOWN    FAIR      57  39  51 SW5       29.92F
VALLEY CITY    MOCLDY    61  27  27 NW9       29.96F
OAKES            N/A     61  30  31 NW14      29.98F
GWINNER          N/A     61  27  27 NW10      29.98F
SHEYENNE NWR     N/A     63  29  28 N7        29.95S
BUFFALO          N/A     59  28  30 N3          N/A
WYNDMERE       NOT AVBL
 ***** THE ABOVE OBSERVATIONS ARE NON NWS ARE NOT QUALITY
       CONTROLLED AND MAY MIS-REPORT RAIN FOR SNOW...
$$

  *****  WEATHER ACROSS NORTHERN MINNESOTA  *****

CITY           SKY/WX    TMP DP  RH WIND       PRES   REMARKS
FLAG ISLAND    FAIR      36  28  75 S3        29.87F
WARROAD        FAIR      55  25  30 W3        29.89F
ROSEAU         FAIR      55  28  35 SW3       29.89F
HALLOCK        FAIR      61  23  23 SW9       29.84F
THF RVR FALLS  FAIR      56  27  32 NW8       29.93F
6HR MIN TEMP:  50; 6HR MAX TEMP:  57;

HALSTAD        NOT AVBL
FOSSTON        FAIR      55  27  33 NW7       29.94F
BAUDETTE       FAIR      53  20  27 NW6       29.90F
6HR MIN TEMP:  49; 6HR MAX TEMP:  54;

WASKISH        FAIR      46  25  42 W8        29.92S
CROOKSTON      FAIR      57  30  35 CALM      29.92F
$$
  *****  WEATHER ACROSS CENTRAL AND WEST MINNESOTA  *****

CITY           SKY/WX    TMP DP  RH WIND       PRES   REMARKS
BEMIDJI        FAIR      52  19  27 NW14      29.93F
6HR MIN TEMP:  52; 6HR MAX TEMP:  56;

PARK RAPIDS    FAIR      55  20  25 NW16      29.95S
6HR MIN TEMP:  53; 6HR MAX TEMP:  58;

WADENA         FAIR      52  27  37 NW13      29.96F
DETROIT LAKES  FAIR      54  30  40 NW12      29.98F
MOORHEAD       FAIR      59  28  31 NW10      29.97F
FERGUS FALLS   FAIR      55  30  38 N8        29.96F
ELBOW LAKE     FAIR      54  32  43 N13       30.00S
6HR MIN TEMP:  50; 6HR MAX TEMP:  55;

MORRIS MN      FAIR      55  34  44 N14       29.99F
STAPLES        FAIR      54  19  26 NW14G21   29.95S
WHEATON        FAIR      57  28  33 NW12      30.01F
$$
  *****  WEATHER ELSEWHERE ACROSS MINNESOTA  *****

CITY           SKY/WX    TMP DP  RH WIND       PRES   REMARKS
DULUTH         FAIR      54  24  31 N12G21    29.88S
6HR MIN TEMP:  53; 6HR MAX TEMP:  57;

INTRNTL FALLS  FAIR      52  21  29 NW7       29.90F
6HR MIN TEMP:  49; 6HR MAX TEMP:  54;

ELY            FAIR      48  19  32 NW7       29.89S
CLOQUET        FAIR      55  18  22 NW13      29.88F
BRAINERD       FAIR      57  24  28 N10       29.93S
6HR MIN TEMP:  56; 6HR MAX TEMP:  59;

HIBBING        FAIR      51  22  31 NW18      29.89S
6HR MIN TEMP:  49; 6HR MAX TEMP:  56;

ALEXANDRIA     FAIR      56  25  30 N13G28    29.99S
6HR MIN TEMP:  56; 6HR MAX TEMP:  59;

SAINT CLOUD    FAIR      59  26  28 NW10G20   29.92R
6HR MIN TEMP:  59; 6HR MAX TEMP:  63;

MINNEAPOLIS    FAIR      61  29  29 N21       29.88S
6HR MIN TEMP:  61; 6HR MAX TEMP:  66;

$$

  *****  WEATHER ACROSS SOUTH DAKOTA  *****

CITY           SKY/WX    TMP DP  RH WIND       PRES   REMARKS
SIOUX FALLS    FAIR      58  29  33 N23G30    30.04R
6HR MIN TEMP:  58; 6HR MAX TEMP:  61;

BROOKINGS      FAIR      56  32  40 N18       30.03S
WATERTOWN      FAIR      58  29  33 N14       30.01F
6HR MIN TEMP:  55; 6HR MAX TEMP:  59;

HURON          FAIR      63  32  31 NW14      30.03F
6HR MIN TEMP:  59; 6HR MAX TEMP:  63;

SISSETON         N/A     61  30  31 NW14      29.98F
ABERDEEN       FAIR      65  26  23 NW20      30.01F
6HR MIN TEMP:  60; 6HR MAX TEMP:  66;

MITCHELL       FAIR      63  33  32 NW16      30.06F
PIERRE         FAIR      65  23  20 NW16      30.06F
6HR MIN TEMP:  60; 6HR MAX TEMP:  66;

MOBRIDGE       FAIR      67  29  24 NW14      30.00F
RAPID CITY     FAIR      63  30  28 N17       30.11F
6HR MIN TEMP:  57; 6HR MAX TEMP:  64;

$$

  *****  SOME WEATHER IN NEARBY STATES *****

CITY           SKY/WX    TMP DP  RH WIND       PRES   REMARKS
GLASGOW MT     FAIR      72  29  20 NW15G22   30.03F
6HR MIN TEMP:  63; 6HR MAX TEMP:  72;

GREAT FALLS MT FAIR      71  25  17 CALM      30.10F
6HR MIN TEMP:  64; 6HR MAX TEMP:  73;

CHEYENNE WY    FAIR      56  25  30 N9        30.24S
6HR MIN TEMP:  46; 6HR MAX TEMP:  56;

SCOTTSBLUFF NE FAIR      64  28  25 NW15      30.18F
6HR MIN TEMP:  57; 6HR MAX TEMP:  64;

OMAHA NE       FAIR      65  27  23 N24G35    29.98R
6HR MIN TEMP:  65; 6HR MAX TEMP:  71;

DES MOINES IA  FAIR      66  41  40 NW14G29   29.90R
6HR MIN TEMP:  66; 6HR MAX TEMP:  74;

DAVENPORT IA   FAIR      69  25  19 W15G22    29.84F
6HR MIN TEMP:  65; 6HR MAX TEMP:  71;

CHICAGO IL     CLOUDY    65  28  24 W9        29.83S
6HR MIN TEMP:  61; 6HR MAX TEMP:  66;

EAU CLAIRE WI  PTSUNNY   62  32  32 NW14G24   29.82R
6HR MIN TEMP:  61; 6HR MAX TEMP:  69;

LA CROSSE WI   FAIR      65  39  38 NW16      29.79R
6HR MIN TEMP:  64; 6HR MAX TEMP:  72;

$$

  *****  SOME NATIONAL WEATHER *****

CITY           SKY/WX    TMP DP  RH WIND       PRES   REMA



USA.gov is the U.S. government's official web portal to all federal, state and local government web resources and services.